Weather History for Nellis AFB, NV

Change the Weather History Date:

Tuesday, February 26, 2013

  Actual Average Record
Temperature  
Mean Temperature 46 °F -  
Max Temperature 58 °F 60 °F 72 °F (2014)
Min Temperature 35 °F 40 °F 35 °F (2013)
Degree Days  
Heating Degree Days 18    
Moisture  
Dew Point 9 °F    
Average Humidity 22    
Maximum Humidity 36    
Minimum Humidity 11    
Precipitation  
Precipitation 0.00 in - - ()
Sea Level Pressure  
Sea Level Pressure 30.15 in    
Wind  
Wind Speed 7 mph (NNE)    
Max Wind Speed 26 mph    
Max Gust Speed 37 mph    
Visibility 10 miles    
Events      
Averages and records for this station are not official NWS values.
T = Trace of Precipitation, MM = Missing Value Source: NWS Daily Summary

Daily Weather History Graph

Daily Weather History Graph

Search for Another Location

Airport:

Trip Planner

Search our weather history database for the weather conditions in past years. The results will help you decide how hot, cold, wet, or windy it might be!

Date:

Astronomy

Feb. 26, 2013 Rise Set
Actual Time 6:13 AM PST 5:32 PM PST
Civil Twilight 5:48 AM PST 5:58 PM PST
Nautical Twilight 5:18 AM PST 6:28 PM PST
Astronomical Twilight 4:48 AM PST 6:57 PM PST
Moon 6:49 PM PST (2/26) 6:22 AM PST (2/26)
Length of Visible Light 12h 10m
Length of Day
11h 18m
Full, 99% of the Moon is Illuminated
Feb 26
Full
Mar 4
Last Quarter
Mar 11
New
Mar 19
First Quarter
Mar 27
Full

Hourly Weather History & Observations

Time (PST) Temp. Windchill Dew Point Humidity Pressure Visibility Wind Dir Wind Speed Gust Speed Precip Events Conditions
12:58 AM 43.7 °F 39.1 °F 10.2 °F 26% 30.07 in 10.0 mi NE 8.1 mph - N/A   Clear
1:58 AM 39.4 °F 37.2 °F 10.8 °F 31% 30.07 in 10.0 mi North 3.5 mph - N/A   Clear
2:58 AM 38.5 °F - 11.1 °F 33% 30.06 in 10.0 mi NE 1.2 mph - N/A   Clear
3:58 AM 35.8 °F 33.0 °F 10.8 °F 36% 30.06 in 10.0 mi ENE 3.5 mph - N/A   Clear
4:58 AM 37.4 °F 33.8 °F 10.6 °F 33% 30.09 in 10.0 mi WSW 4.6 mph - N/A   Clear
5:58 AM 36.1 °F - 10.6 °F 35% 30.11 in 10.0 mi Calm Calm - N/A   Clear
6:58 AM 35.4 °F - 9.7 °F 34% 30.14 in 10.0 mi Variable 2.3 mph - N/A   Clear
7:58 AM 49.5 °F - 12.2 °F 22% 30.15 in 10.0 mi NNE 21.9 mph 28.8 mph N/A   Clear
8:58 AM 51.4 °F - 10.4 °F 19% 30.17 in 10.0 mi NNE 24.2 mph 33.4 mph N/A   Clear
9:58 AM 53.2 °F - 9.7 °F 18% 30.18 in 10.0 mi NNE 26.5 mph 32.2 mph N/A   Clear
10:58 AM 54.9 °F - 8.2 °F 15% 30.17 in 10.0 mi NNE 21.9 mph 36.8 mph N/A   Clear
11:58 AM 56.3 °F - 7.9 °F 14% 30.17 in 10.0 mi NNE 10.4 mph 27.6 mph N/A   Clear
12:58 PM 56.8 °F - 6.6 °F 13% 30.14 in 10.0 mi NNE 5.8 mph 26.5 mph N/A   Clear
1:58 PM 57.7 °F - 5.5 °F 12% 30.12 in 10.0 mi North 3.5 mph - N/A   Clear
2:58 PM 58.1 °F - 3.9 °F 11% 30.12 in 10.0 mi NNE 10.4 mph 28.8 mph N/A   Clear
3:58 PM 58.1 °F - 3.9 °F 11% 30.12 in 10.0 mi NNE 2.3 mph - N/A   Clear
4:58 PM 57.0 °F - 4.3 °F 12% 30.11 in 10.0 mi NNE 3.5 mph - N/A   Clear
5:58 PM 53.4 °F - 8.4 °F 16% 30.15 in 10.0 mi Calm Calm - N/A   Clear
6:58 PM 50.9 °F - 10.2 °F 20% 30.18 in 10.0 mi NNE 2.3 mph - N/A   Clear
7:58 PM 49.8 °F - 11.5 °F 21% 30.20 in 10.0 mi NNE 3.5 mph - N/A   Clear
8:58 PM 49.3 °F - 12.0 °F 22% 30.22 in 10.0 mi NE 18.4 mph 25.3 mph N/A   Clear
9:58 PM 46.8 °F - 11.1 °F 24% 30.25 in 10.0 mi NNE 1.2 mph - N/A   Clear
10:58 PM 45.7 °F - 10.6 °F 24% 30.26 in 10.0 mi Calm Calm - N/A   Clear
11:58 PM 44.6 °F 41.4 °F 11.8 °F 27% 30.27 in 10.0 mi East 5.8 mph - N/A   Clear